Total_Precipitation_Accumulation
0.12 0.10 0.13 0.11 0.07 0.03 0.02 0.00 0.00 0.00 0.00 0.00 0.00 0.00 0.00 0.00 0.00 0.00 0.00 0.00 0.00 0.00 0.00 0.01 0.04 0.04 0.04 0.01 0.02 0.05 0.09 0.04 0.01 0.02 0.02 0.01 0.01 0.00 0.00 0.00 0.00 0.00 0.00
0.33 0.17 0.16 0.10 0.06 0.08 0.05 0.03 0.02 0.01 0.00 0.00 0.00 0.00 0.00 0.00 0.00 0.00 0.00 0.00 0.00 0.00 0.00 0.00 0.00 0.02 0.04 0.03 0.02 0.05 0.08 0.05 0.02 0.02 0.02 0.02 0.03 0.02 0.00 0.00 0.00 0.00 0.00
0.16 0.22 0.18 0.16 0.19 0.31 0.38 0.28 0.18 0.14 0.05 0.03 0.01 0.00 0.01 0.01 0.00 0.00 0.00 0.00 0.00 0.00 0.00 0.00 0.00 0.00 0.01 0.01 0.01 0.02 0.07 0.07 0.05 0.05 0.05 0.05 0.06 0.03 0.01 0.00 0.00 0.00 0.00
0.08 0.11 0.10 0.06 0.21 0.47 0.62 0.48 0.33 0.27 0.16 0.12 0.08 0.03 0.03 0.02 0.00 0.00 0.00 0.00 0.00 0.00 0.00 0.00 0.00 0.00 0.00 0.01 0.02 0.00 0.07 0.11 0.08 0.07 0.07 0.08 0.05 0.03 0.02 0.00 0.02 0.03 0.02
0.10 0.15 0.13 0.10 0.23 0.40 0.46 0.45 0.42 0.39 0.27 0.19 0.13 0.12 0.06 0.02 0.01 0.00 0.00 0.00 0.00 0.00 0.00 0.00 0.00 0.00 0.00 0.00 0.00 0.00 0.07 0.19 0.10 0.13 0.11 0.15 0.10 0.09 0.06 0.05 0.11 0.14 0.07
0.09 0.09 0.11 0.11 0.18 0.27 0.61 0.72 0.36 0.40 0.35 0.45 0.48 0.28 0.20 0.11 0.04 0.02 0.03 0.02 0.01 0.01 0.01 0.00 0.00 0.00 0.00 0.00 0.00 0.00 0.01 0.13 0.19 0.19 0.16 0.18 0.13 0.12 0.10 0.11 0.17 0.18 0.09
0.09 0.11 0.14 0.20 0.22 0.19 0.39 0.68 0.74 0.58 0.36 0.41 0.49 0.28 0.23 0.16 0.09 0.07 0.08 0.06 0.03 0.01 0.00 0.00 0.00 0.00 0.00 0.01 0.02 0.00 0.00 0.05 0.18 0.20 0.17 0.17 0.14 0.13 0.13 0.17 0.16 0.08 0.08
0.08 0.11 0.12 0.16 0.26 0.36 0.45 0.43 0.51 0.53 0.40 0.41 0.33 0.24 0.12 0.06 0.02 0.02 0.08 0.08 0.05 0.03 0.02 0.04 0.03 0.05 0.04 0.04 0.12 0.13 0.06 0.05 0.11 0.16 0.18 0.22 0.17 0.17 0.18 0.16 0.15 0.19 0.26
0.08 0.09 0.15 0.18 0.18 0.22 0.24 0.28 0.35 0.46 0.38 0.40 0.38 0.33 0.11 0.02 0.01 0.00 0.00 0.01 0.01 0.03 0.02 0.04 0.11 0.19 0.16 0.09 0.11 0.10 0.13 0.13 0.11 0.17 0.20 0.17 0.32 0.28 0.18 0.17 0.24 0.34 0.38
0.11 0.13 0.17 0.22 0.25 0.31 0.22 0.21 0.23 0.37 0.39 0.30 0.28 0.23 0.24 0.13 0.06 0.04 0.01 0.01 0.03 0.06 0.09 0.11 0.12 0.10 0.07 0.05 0.05 0.05 0.04 0.03 0.03 0.04 0.09 0.22 0.24 0.24 0.28 0.35 0.43 0.45 0.39
0.11 0.16 0.20 0.23 0.18 0.18 0.30 0.31 0.30 0.32 0.35 0.34 0.32 0.29 0.28 0.27 0.21 0.21 0.11 0.06 0.05 0.04 0.04 0.04 0.03 0.02 0.02 0.02 0.03 0.03 0.01 0.00 0.01 0.08 0.14 0.14 0.17 0.25 0.35 0.44 0.58 0.67 0.70
0.07 0.08 0.18 0.19 0.16 0.15 0.18 0.35 0.40 0.38 0.40 0.38 0.33 0.35 0.30 0.31 0.30 0.34 0.37 0.23 0.17 0.07 0.04 0.02 0.01 0.01 0.02 0.01 0.03 0.05 0.05 0.04 0.04 0.05 0.08 0.10 0.15 0.18 0.20 0.21 0.26 0.29 0.30
0.05 0.17 0.32 0.38 0.24 0.24 0.25 0.28 0.32 0.33 0.33 0.38 0.37 0.37 0.44 0.46 0.46 0.45 0.49 0.34 0.20 0.07 0.03 0.01 0.01 0.03 0.04 0.04 0.06 0.11 0.07 0.08 0.08 0.07 0.06 0.07 0.08 0.07 0.07 0.05 0.05 0.07 0.09
0.14 0.20 0.22 0.55 0.70 0.57 0.41 0.35 0.30 0.22 0.22 0.20 0.21 0.24 0.30 0.40 0.64 0.75 0.66 0.61 0.47 0.18 0.06 0.02 0.03 0.07 0.07 0.08 0.14 0.23 0.16 0.19 0.13 0.09 0.08 0.07 0.05 0.03 0.01 0.01 0.01 0.02 0.04
0.27 0.19 0.14 0.11 0.15 0.21 0.37 0.44 0.44 0.38 0.29 0.22 0.23 0.29 0.29 0.28 0.34 0.48 0.55 0.54 0.55 0.39 0.16 0.07 0.09 0.08 0.10 0.14 0.21 0.20 0.12 0.19 0.15 0.11 0.09 0.06 0.05 0.03 0.01 0.01 0.01 0.01 0.01
0.41 0.49 0.39 0.34 0.24 0.16 0.18 0.24 0.27 0.31 0.33 0.31 0.30 0.32 0.31 0.36 0.43 0.44 0.43 0.42 0.55 0.68 0.58 0.21 0.19 0.19 0.17 0.21 0.31 0.30 0.26 0.31 0.22 0.17 0.12 0.08 0.04 0.02 0.01 0.01 0.01 0.01 0.01
0.45 0.34 0.51 0.67 0.55 0.42 0.39 0.41 0.40 0.41 0.46 0.43 0.41 0.41 0.40 0.37 0.36 0.34 0.33 0.37 0.42 0.49 0.56 0.40 0.34 0.30 0.31 0.32 0.35 0.33 0.26 0.16 0.13 0.11 0.06 0.05 0.03 0.02 0.02 0.02 0.02 0.02 0.02
0.56 0.45 0.32 0.37 0.53 0.58 0.56 0.49 0.59 0.53 0.40 0.44 0.52 0.52 0.46 0.40 0.37 0.33 0.31 0.29 0.29 0.33 0.43 0.47 0.42 0.36 0.34 0.29 0.23 0.20 0.16 0.12 0.08 0.08 0.08 0.07 0.07 0.06 0.06 0.06 0.07 0.07 0.07
0.29 0.31 0.33 0.31 0.27 0.29 0.38 0.52 0.56 0.56 0.58 0.53 0.42 0.36 0.37 0.41 0.45 0.47 0.48 0.46 0.39 0.32 0.29 0.31 0.27 0.22 0.17 0.11 0.10 0.15 0.15 0.12 0.09 0.13 0.13 0.13 0.13 0.11 0.08 0.08 0.08 0.08 0.09
0.23 0.24 0.28 0.31 0.31 0.19 0.22 0.23 0.19 0.25 0.25 0.27 0.24 0.16 0.11 0.10 0.12 0.12 0.13 0.10 0.07 0.04 0.02 0.03 0.04 0.05 0.05 0.06 0.10 0.15 0.18 0.21 0.20 0.18 0.18 0.16 0.18 0.15 0.12 0.10 0.08 0.07 0.07
0.20 0.14 0.12 0.10 0.16 0.17 0.24 0.16 0.05 0.01 0.02 0.04 0.05 0.02 0.01 0.01 0.00 0.00 0.00 0.00 0.00 0.00 0.01 0.01 0.01 0.02 0.04 0.05 0.06 0.07 0.09 0.13 0.19 0.17 0.16 0.16 0.16 0.16 0.16 0.18 0.15 0.13 0.11
0.01 0.01 0.00 0.00 0.00 0.03 0.10 0.02 0.00 0.00 0.00 0.00 0.00 0.00 0.00 0.00 0.00 0.00 0.00 0.00 0.00 0.01 0.01 0.01 0.02 0.03 0.03 0.04 0.07 0.10 0.13 0.17 0.20 0.15 0.17 0.15 0.14 0.14 0.10 0.09 0.13 0.13 0.14
0.00 0.00 0.00 0.00 0.00 0.00 0.00 0.00 0.00 0.00 0.00 0.00 0.00 0.00 0.00 0.00 0.00 0.00 0.00 0.00 0.00 0.01 0.02 0.03 0.02 0.02 0.03 0.05 0.10 0.13 0.16 0.18 0.16 0.12 0.15 0.15 0.13 0.16 0.16 0.18 0.29 0.29 0.28
0.00 0.00 0.00 0.00 0.00 0.00 0.00 0.00 0.00 0.00 0.00 0.00 0.00 0.00 0.00 0.00 0.00 0.00 0.00 0.00 0.00 0.00 0.00 0.01 0.02 0.03 0.07 0.09 0.16 0.22 0.24 0.26 0.25 0.18 0.15 0.19 0.10 0.10 0.14 0.14 0.26 0.32 0.33
0.00 0.00 0.00 0.00 0.00 0.00 0.00 0.00 0.00 0.00 0.00 0.00 0.00 0.00 0.00 0.00 0.00 0.00 0.00 0.00 0.00 0.00 0.00 0.02 0.04 0.07 0.14 0.21 0.27 0.35 0.36 0.34 0.34 0.22 0.18 0.24 0.18 0.17 0.15 0.16 0.24 0.43 0.41
0.00 0.00 0.00 0.00 0.00 0.00 0.00 0.00 0.00 0.00 0.00 0.00 0.00 0.00 0.00 0.00 0.00 0.00 0.01 0.00 0.00 0.00 0.00 0.02 0.03 0.05 0.11 0.16 0.22 0.18 0.20 0.35 0.42 0.39 0.31 0.47 0.41 0.36 0.36 0.24 0.17 0.19 0.30